GW4332 Weather Reports


Display with metric or nautical units.
time (UTC)temp
F
wind
direction
speed
MPH
gust
MPH
rain 1hr
in
rain 24hr
in
rain mn
in
humidity
%
barometer
mb
20260831022030 61 156 2.0 6.0 0.00 0.00 0.06 90 1007.6
20260831021030 61 186 3.0 7.0 0.00 0.00 0.06 90 1007.7
20260831020030 62 190 3.0 6.0 0.00 0.00 0.06 90 1007.8
20260831015030 62 183 3.0 7.0 0.00 0.00 0.06 90 1007.9
20260831014030 62 196 2.0 7.0 0.00 0.00 0.06 90 1007.7
20260831013030 62 193 2.0 5.0 0.00 0.00 0.06 90 1007.6
20260831012029 62 140 2.0 5.0 0.00 0.00 0.06 90 1007.6
20260831011029 62 120 2.0 5.0 0.00 0.00 0.06 90 1007.5
20260831010030 62 156 2.0 6.0 0.00 0.00 0.06 90 1007.8
20260831005030 62 136 1.0 5.0 0.00 0.00 0.06 90 1007.9
20260831004029 62 183 2.0 5.0 0.00 0.00 0.06 90 1008.1
20260831003030 62 139 2.0 7.0 0.00 0.00 0.06 90 1008.1
20260831002030 62 136 2.0 6.0 0.00 0.00 0.06 90 1008.1
20260831001030 62 121 2.0 6.0 0.00 0.00 0.06 90 1008.2
20260831000030 63 103 2.0 7.0 0.00 0.00 0.06 90 1008.1
20260830235030 63 137 2.0 6.0 0.00 0.00 0.06 89 1008.2
20260830234030 63 119 2.0 6.0 0.00 0.00 0.06 90 1008.3
20260830233030 64 106 2.0 4.0 0.00 0.00 0.06 89 1008.4
20260830232030 64 153 0.0 2.0 0.00 0.00 0.06 89 1008.4
20260830231030 64 172 2.0 5.0 0.00 0.00 0.06 89 1008.5
20260830230030 64 151 1.0 4.0 0.00 0.00 0.06 89 1008.5
20260830225030 64 197 4.0 7.0 0.00 0.00 0.06 89 1008.7
20260830224030 64 216 6.0 10.0 0.00 0.00 0.06 89 1008.8
20260830223030 64 229 7.0 13.0 0.00 0.00 0.06 88 1008.9
20260830222030 64 199 3.0 8.0 0.00 0.00 0.02 87 1009.0
20260830221030 64 98 2.0 7.0 0.00 0.00 0.00 87 1008.9
20260830220030 64 102 2.0 6.0 0.00 0.00 0.50 87 1008.9
20260830215030 64 113 1.0 6.0 0.00 0.00 0.50 87 1009.0
20260830214030 64 118 2.0 10.0 0.00 0.00 0.50 87 1009.1
20260830213030 64 151 1.0 10.0 0.00 0.00 0.50 87 1009.1
20260830212029 64 108 2.0 9.0 0.00 0.00 0.50 87 1009.2
20260830211030 64 131 2.0 8.0 0.00 0.00 0.50 86 1009.2
20260830210030 64 139 3.0 8.0 0.00 0.00 0.50 86 1009.3
20260830205030 65 129 2.0 8.0 0.00 0.00 0.50 85 1009.3
20260830204030 65 139 2.0 7.0 0.00 0.00 0.50 85 1009.5
20260830203030 65 136 2.0 7.0 0.00 0.00 0.50 85 1009.6
20260830202030 65 139 0.0 6.0 0.00 0.00 0.50 84 1009.7
20260830201030 65 101 0.0 1.0 0.00 0.00 0.50 84 1009.8
20260830200030 65 180 0.0 0.0 0.00 0.00 0.50 83 1009.9
20260830195030 66 180 0.0 0.0 0.00 0.00 0.50 83 1009.9
20260830194029 66 180 0.0 0.0 0.00 0.00 0.50 82 1010.1
20260830193030 66 180 0.0 0.0 0.00 0.00 0.50 82 1010.1
20260830192030 66 180 0.0 0.0 0.00 0.00 0.50 81 1010.2
20260830191031 66 129 0.0 1.0 0.00 0.00 0.50 81 1010.2
20260830190029 66 112 1.0 4.0 0.00 0.00 0.50 81 1010.1
20260830185029 67 119 1.0 3.0 0.00 0.00 0.50 81 1010.1
20260830184029 67 149 1.0 3.0 0.00 0.00 0.50 81 1010.2
20260830183030 67 163 1.0 3.0 0.00 0.00 0.50 82 1010.4
20260830182030 67 198 1.0 4.0 0.00 0.00 0.50 82 1010.5
20260830181030 67 179 1.0 3.0 0.00 0.00 0.50 83 1010.2
20260830180030 67 188 2.0 4.0 0.00 0.00 0.50 83 1010.2
20260830175030 68 196 3.0 5.0 0.00 0.00 0.50 83 1010.2
20260830174030 68 196 3.0 5.0 0.00 0.00 0.50 83 1010.4
20260830173030 68 205 5.0 9.0 0.00 0.00 0.50 83 1010.4
20260830172030 68 209 5.0 9.0 0.00 0.00 0.50 83 1010.5
20260830171030 68 206 4.0 8.0 0.00 0.00 0.50 83 1010.5
20260830170030 68 216 6.0 12.0 0.00 0.00 0.50 83 1010.5
20260830165030 68 226 7.0 12.0 0.00 0.00 0.50 83 1010.6
20260830164029 68 220 7.0 12.0 0.00 0.00 0.50 83 1010.6
20260830163030 68 225 9.0 14.0 0.00 0.00 0.50 83 1010.6
20260830162030 68 235 11.0 15.0 0.00 0.00 0.50 84 1010.5
20260830161030 68 225 12.0 17.0 0.00 0.00 0.50 84 1010.5
20260830160030 68 232 13.0 17.0 0.00 0.00 0.50 83 1010.5
20260830155030 68 235 13.0 17.0 0.00 0.00 0.50 83 1010.5
20260830154030 68 220 13.0 18.0 0.00 0.00 0.50 82 1010.5
20260830153030 68 229 11.0 17.0 0.00 0.00 0.50 82 1010.6
20260830152030 68 217 12.0 18.0 0.00 0.00 0.50 82 1010.7
20260830151030 68 232 11.0 17.0 0.00 0.00 0.50 83 1010.8
20260830150030 67 223 11.0 17.0 0.00 0.00 0.50 83 1010.7
20260830145030 67 231 12.0 18.0 0.00 0.00 0.50 85 1010.7
20260830144030 67 227 12.0 17.0 0.00 0.00 0.50 86 1010.7
20260830143030 67 237 12.0 19.0 0.00 0.00 0.50 87 1010.6
20260830142030 66 228 12.0 21.0 0.00 0.00 0.50 87 1010.6
20260830141030 66 233 13.0 19.0 0.00 0.00 0.50 89 1010.5
20260830140029 66 230 13.0 20.0 0.00 0.00 0.50 90 1010.6
20260830135029 65 218 12.0 19.0 0.00 0.00 0.50 90 1010.6
20260830134030 66 231 11.0 20.0 0.00 0.00 0.50 89 1010.6
20260830133030 66 227 12.0 22.0 0.00 0.00 0.50 89 1010.6
20260830132030 67 215 10.0 20.0 0.00 0.00 0.50 90 1010.4
20260830131030 67 225 12.0 17.0 0.00 0.00 0.50 90 1010.3
20260830130030 66 221 10.0 15.0 0.00 0.00 0.50 91 1010.2
20260830125030 66 236 10.0 15.0 0.00 0.00 0.50 91 1010.2
20260830123030 66 214 10.0 14.0 0.00 0.00 0.50 93 1010.1
20260830122030 66 216 9.0 13.0 0.00 0.00 0.50 93 1010.1
20260830121030 66 230 9.0 14.0 0.00 0.00 0.50 94 1010.0
20260830120030 66 224 9.0 14.0 0.00 0.00 0.50 95 1010.0
20260830115030 65 237 9.0 13.0 0.00 0.00 0.50 95 1010.0
20260830114030 65 233 8.0 11.0 0.00 0.00 0.50 95 1009.8
20260830113030 64 249 9.0 11.0 0.00 0.00 0.50 95 1009.6
20260830112030 64 256 9.0 11.0 0.00 0.00 0.50 95 1009.5
20260830111030 64 252 8.0 11.0 0.00 0.00 0.50 95 1009.4
20260830110030 64 245 9.0 11.0 0.00 0.00 0.50 95 1009.3
20260830105030 64 260 9.0 11.0 0.00 0.00 0.50 95 1009.3
20260830104030 64 255 9.0 12.0 0.00 0.00 0.50 95 1009.2
20260830103030 64 245 7.0 12.0 0.00 0.00 0.50 95 1009.2
20260830102030 64 254 7.0 10.0 0.00 0.00 0.50 95 1009.1
20260830101030 64 254 9.0 12.0 0.00 0.00 0.50 95 1008.9
20260830100030 64 247 9.0 12.0 0.00 0.00 0.50 95 1008.8
20260830095029 63 253 11.0 15.0 0.00 0.00 0.50 95 1008.8
20260830094030 63 249 10.0 13.0 0.00 0.00 0.50 95 1008.7
20260830093030 63 244 10.0 13.0 0.00 0.00 0.49 95 1008.5
20260830092030 64 247 11.0 15.0 0.00 0.00 0.49 95 1008.5
20260830091030 64 261 12.0 14.0 0.00 0.00 0.49 95 1008.3
20260830090030 63 253 13.0 17.0 0.00 0.00 0.48 95 1008.2
20260830085029 64 246 11.0 14.0 0.00 0.00 0.48 95 1008.1
20260830084030 64 231 10.0 14.0 0.00 0.00 0.48 95 1008.1
20260830083030 64 221 10.0 15.0 0.00 0.00 0.46 95 1008.0
20260830082030 64 247 10.0 13.0 0.00 0.00 0.45 95 1007.8
20260830081029 64 238 12.0 15.0 0.00 0.00 0.45 95 1007.8
20260830080030 64 224 10.0 16.0 0.00 0.00 0.45 95 1007.6
20260830075030 64 218 8.0 15.0 0.00 0.00 0.45 95 1007.5
20260830074030 64 218 8.0 17.0 0.00 0.00 0.43 95 1007.5
20260830073030 64 211 10.0 18.0 0.00 0.00 0.42 94 1007.3
20260830072030 64 216 8.0 17.0 0.00 0.00 0.41 94 1007.2
20260830071030 64 211 9.0 16.0 0.00 0.00 0.41 94 1007.0
20260830070030 64 218 10.0 16.0 0.00 0.00 0.41 94 1007.0
20260830065030 64 203 8.0 15.0 0.00 0.00 0.40 94 1006.9
20260830064030 64 215 8.0 13.0 0.00 0.00 0.40 94 1006.7
20260830063030 64 208 9.0 15.0 0.00 0.00 0.40 94 1006.5
20260830062030 64 201 10.0 16.0 0.00 0.00 0.40 94 1006.4
20260830061030 64 211 9.0 17.0 0.00 0.00 0.40 94 1006.3
20260830060030 64 212 9.0 16.0 0.00 0.00 0.40 94 1006.2
20260830055029 64 201 9.0 17.0 0.00 0.00 0.40 94 1006.0
20260830054030 64 210 10.0 19.0 0.00 0.00 0.40 94 1005.8
20260830053031 64 203 11.0 20.0 0.00 0.00 0.39 94 1005.7
20260830052030 64 212 9.0 18.0 0.00 0.00 0.38 94 1005.5
20260830051030 64 200 9.0 19.0 0.00 0.00 0.35 94 1005.4
20260830050029 64 200 10.0 18.0 0.00 0.00 0.35 94 1005.4
20260830045030 64 196 11.0 23.0 0.00 0.00 0.35 94 1005.2
20260830044031 64 205 11.0 21.0 0.00 0.00 0.35 94 1005.0
20260830043030 64 201 10.0 19.0 0.00 0.00 0.34 93 1004.9
20260830042030 64 201 13.0 21.0 0.00 0.00 0.34 93 1004.9
20260830041030 64 205 12.0 23.0 0.00 0.00 0.34 93 1004.8
20260830040029 64 197 12.0 23.0 0.00 0.00 0.34 93 1004.7
20260830035029 64 203 13.0 26.0 0.00 0.00 0.34 93 1004.6
20260830034030 64 206 14.0 25.0 0.00 0.00 0.34 94 1004.4
20260830033030 64 209 12.0 21.0 0.00 0.00 0.34 93 1004.3
20260830032030 64 220 12.0 24.0 0.00 0.00 0.33 93 1004.1
20260830031030 65 227 11.0 21.0 0.00 0.00 0.31 93 1004.3
20260830030029 65 211 11.0 22.0 0.00 0.00 0.25 93 1004.3
20260830025029 65 215 10.0 19.0 0.00 0.00 0.20 92 1004.2
20260830024030 65 209 12.0 20.0 0.00 0.00 0.13 92 1004.1
20260830023030 65 204 12.0 21.0 0.00 0.00 0.11 92 1004.0